Corrida Sinta-se Bem – 6K RUN – Geral Feminino

Relatório Geral Feminino
Coloc. Num. Atleta Idade Sexo Fx.Et. Cl.Fx.Et. Tempo Liquido Equipe
1 708 WALQUÍRIA MILAINE MARTINS 37 F F0099 1 00:27:21 00:27:20 CORRE BRASIL
2 295 HELEN FÁTIMA DE ASSIS 31 F F0099 2 00:29:53 00:29:49 ROBERTÕES
3 464 MARIA DE FATIMA SANTANA 51 F F0099 3 00:30:32 00:30:24 AVULSO
4 209 ELLEN CRISTINA DE MORAIS PEREIRA BE 28 F F0099 4 00:31:02 00:30:39 AVULSO
5 28 ALINE CRISTINE CANAVEZI 28 F F0099 5 00:31:44 00:31:27 BIO TIPO ACADEMIA
6 164 RENATA MARTINS DE CARVALHO 21 F F0099 6 00:32:08 00:32:01 AVULSO
7 186 EDNA APARECIDA DE LIMA 48 F F0099 7 00:32:46 00:32:35 AVULSO
8 625 SANDRA MARIA AMORIM 46 F F0099 8 00:32:52 00:32:45 AVULSO
9 654 TABATA GOBETI DA SILVA 24 F F0099 9 00:33:06 00:32:51 DIADEMA RUN
10 582 ROBERTA DOS SANTOS MEIRELES 31 F F0099 10 00:33:14 00:32:55 BOSQUE MAIA
11 478 MATILDE NUNES DOS SANTOS 43 F F0099 11 00:34:31 00:33:50 SÓCORRO
12 426 LUZIA MAURA PADUIM SILVA 65 F F0099 12 00:34:35 00:34:20 PQUE V. PRUDENTE
13 474 MARIZA SOUZA DA CUNHA 52 F F0099 13 00:34:39 00:34:03 AVULSO
14 5 ADRIANA ALVES FRASSON 40 F F0099 14 00:35:15 00:34:56 CORRE BRASIL
15 618 ROSEMEIRE DE LIMA CORREIA 45 F F0099 15 00:35:15 00:34:44 PARQUE ECOLOGICO VILA PRUDENTE
16 607 ROMILDA AMARANTE DIAS GARCIA 40 F F0099 16 00:35:43 00:35:19 AVULSO
17 828 GABRIELA DE MORAES 37 F F0099 17 00:35:51 00:35:48
18 698 VANIA APARECIDA FERNANDES 49 F F0099 18 00:36:04 00:35:59 STUDIUM K
19 288 GLEILY COLLETO 28 F F0099 19 00:36:13 00:35:29 AVULSO
20 109 CAROLINE ALVES ARAGÃO 25 F F0099 20 00:36:35 00:36:16 AVULSO
21 700 VERA LUCIA BAPTISTA COSTA 51 F F0099 21 00:36:40 00:36:07 AVULSO
22 409 LUCIA GONÇALVES SILVA 43 F F0099 22 00:36:45 00:36:34 AVULSO
23 396 LEOBINA PELLEGRINI CALDAS LIMA 34 F F0099 23 00:36:46 00:36:37 AVULSO
24 360 JOSÉ NILTON DA SILVA 47 F F0099 24 00:36:54 00:36:30 PERTECH
25 315 IVANI DE OLIVEIRA MAIA 53 F F0099 25 00:37:00 00:36:59 AVULSO
26 4 ADRIA NUNES DA SILVA PIMENTA 45 F F0099 26 00:37:07 00:36:44 AVULSO
27 456 MARIA ANTONIETA DE ALVARENGA FERNAN 62 F F0099 27 00:37:27 00:36:53 AVULSO
28 468 MARIA LORETO PARADA MILLER 51 F F0099 28 00:37:27 00:36:38 SÓCORRO
29 558 RENATA RIBEIRO NEPOMUCENO 30 F F0099 29 00:37:58 00:37:34 AVULSO
30 648 SONIA FRIAS 50 F F0099 30 00:38:08 00:37:25 FRIAS
31 620 ROZANA DOS REIS COSTA 44 F F0099 31 00:38:15 00:38:13 AVULSO
32 223 EVANDRO GONZAGA GUEDES 38 F F0099 32 00:38:43 00:38:18 PERTECH
33 298 HELOISA BENETE FURLAN 38 F F0099 33 00:38:43 00:37:56 SÓCORRO
34 559 RENATA STORT 34 F F0099 34 00:38:43 00:38:16 ADM ESPORTIVA
35 414 LUCILENE APARECIDA DUELA DA SILVA 43 F F0099 35 00:38:59 00:38:47 UP
36 378 KAREN MANAMI ALVES DA SILVA 26 F F0099 36 00:39:00 00:38:00 AVULSO
37 825 SUELI G.T DOS SANTOS 43 F F0099 37 00:39:22 00:38:48 GM SANTO ANDRE
38 521 PAULA CORREA BARRIENTOS 35 F F0099 38 00:39:46 00:39:16 VALDIR CAMARGO
39 96 CAMILA BRONETTI MACHADO 31 F F0099 39 00:39:55 00:39:47 AVULSO
40 371 JULIANA DA SILVA MACHADO 28 F F0099 40 00:40:24 00:39:19 AVULSO
41 663 TATIANA APARECIDA PEREIRA GROBA MOR 29 F F0099 41 00:40:25 00:40:01 AVULSO
42 208 ELIZABETE COUTO LAVRADOR PEREIRA 46 F F0099 42 00:40:27 00:40:18 SAUDE FUNCIONAL
43 638 SILVIA ANTONIA CATARINO 44 F F0099 43 00:40:30 00:39:37 SÓCORRO
44 845 MARIA V.P.GOMES 70 F F0099 44 00:40:40 00:40:38
45 442 MARCIA RAQUEL DE SOUZA ALEIXO 41 F F0099 45 00:40:53 00:40:00 AVULSO
46 839 ADRIANE . ANTUNES 34 F F0099 46 00:41:07 00:41:04 GM SANTO ANDRE
47 278 GIANNA KARLA TAVARES DE ALMEDIA 42 F F0099 47 00:41:14 00:40:06 CORREDORES 100 FUTURO
48 67 ANNY ARRUDA 29 F F0099 48 00:41:19 00:41:02 DELTA
49 643 SIMONE MARILIA BEU TAKEBAYASHI 31 F F0099 49 00:41:31 00:41:02 AVULSO
50 843 SAMARA T. MASCIMENTO 20 F F0099 50 00:41:36 00:40:20
51 459 MARIA CRISTINA TIEKO NAKAGAWA 45 F F0099 51 00:41:40 00:41:04 ROBERTÕES
52 199 ELAINE CELINA GANDELINI 43 F F0099 52 00:41:46 00:41:33 TOLEDO DO BRASIL
53 567 RHANAY MENDONÇA AGUIAR 25 F F0099 53 00:42:01 00:41:47 AVULSO
54 65 ANGELA MARIA DARCIE 57 F F0099 54 00:42:04 00:41:52 FAMÍLIA RADDI EC
55 218 ERICLÉIA GONÇALVES SALINA 39 F F0099 55 00:42:07 00:40:45 SE É QUE VOCÊ ME ENTENDE
56 557 RENATA DE O. MINHOTO DO NASCIMENTO 30 F F0099 56 00:42:12 00:42:00 COMPLEXO SAÚDE
57 659 TAMARA DE MARCHI 25 F F0099 57 00:42:15 00:42:05 RUNNERS
58 383 KELI DAVID OLIVEIRA 30 F F0099 58 00:42:16 00:41:05 AVULSO
59 579 RITA DE CASSIA CARDOSO LIMA 39 F F0099 59 00:42:16 00:41:28 JUNTO E MISTURADO
60 846 BARBARA MALZONE 27 F F0099 60 00:42:17 00:41:31
61 644 SIMONE MENEGINI 37 F F0099 00:42:18 00:41:51 INDIVIDUAL
62 501 MONIKA UZAL VIETES 40 F F0099 61 00:42:26 00:41:38 JUNTO E MISTURADO
63 642 SIMONE APARECIDA TEIXEIRA DAVID 37 F F0099 62 00:42:35 00:42:22 AVULSO
64 646 SOLANGE SANCHES 50 F F0099 63 00:42:56 00:42:21 ROBERTÕES & ROBERTINHAS
65 476 MARTA LAZARI GARBIN 27 F F0099 64 00:43:27 00:43:07 AVULSO
66 99 CAMILA PONTES CALADO DA SILVA 25 F F0099 65 00:43:38 00:42:56 SÓCORRO
67 466 MARIA ESTER CASTANHO 53 F F0099 66 00:43:49 00:43:36 AVULSO
68 38 ANA LUCIA ZANATTA FRANCESCHINI ALME 43 F F0099 67 00:44:08 00:43:13 ALMEIDA TEAM
69 580 RITA DE CASSIA CHINARELLI 41 F F0099 68 00:44:13 00:43:13 SOCORRO
70 535 PRISCILA KATO 35 F F0099 69 00:44:33 00:43:58 PRISCILA
71 463 MARIA DE FÁTIMA ROCHA FAVORETTO 46 F F0099 70 00:44:34 00:43:02 SÓCORRO
72 498 MONICA DE SOUZA BIONDI 44 F F0099 71 00:44:34 00:43:02 SOCORRO
73 406 LUANA SABATINI GONÇALVES 19 F F0099 72 00:44:38 00:44:19 HEINZE
74 496 MIRIAM APARECIDA PRADA 59 F F0099 73 00:44:44 00:43:47 AVULSO
75 636 SILVANEIDE PINHEIRO AKIOKA 43 F F0099 74 00:44:53 00:44:47 AVULSO
76 437 MARCIA DUARTE LISSI 44 F F0099 75 00:45:05 00:43:52 AVULSO
77 316 IVONE ALVES HEINZE 46 F F0099 76 00:45:11 00:45:10 HEINZE
78 118 CIBELE BÍSCARO 50 F F0099 77 00:45:25 00:44:28 RECICLA
79 85 BIANCA DE FATIMA OLIVEIRA MAIA 33 F F0099 78 00:45:28 00:44:19 AVULSO
80 43 ANA PAULA ZANUTO 26 F F0099 79 00:45:39 00:45:28 AVULSO
81 380 KARINA SARAIVA DAMETTO 35 F F0099 80 00:45:51 00:45:22 4º ANDAR – TOLEDO DO BRASIL
82 484 MAYARA COSSONICHE POTENZA 22 F F0099 81 00:46:10 00:46:10 COSSONVICHE – TOLEDO DO BRASIL
83 381 KARINE MENDES DORNELAS 48 F F0099 82 00:46:11 00:45:33 CORRE BRASIL
84 386 LARISSA YUMI SAKURAI 29 F F0099 83 00:46:17 00:45:02 AVULSO
85 142 DAUSILEI TEIXEIRA 41 F F0099 84 00:46:18 00:45:01 AVULSO
86 120 CLAUDIA LUZ 39 F F0099 85 00:46:36 00:45:34 AVULSO
87 206 ELISABETH BERGAMELLI RAMOS 46 F F0099 86 00:46:36 00:45:31 AVULSO
88 64 ANDRESSA MAGDALENO FERREIRA 27 F F0099 87 00:46:40 00:46:27 AVULSO
89 207 ELISAMA LIMA 29 F F0099 88 00:46:41 00:45:36 AVULSO
90 495 MILVA MARIA CODOGNO MOJANO 45 F F0099 89 00:46:43 00:46:27 DIADEMA RUN
91 200 ELAINE MARIA CHAGAS 44 F F0099 90 00:46:52 00:46:12 CORRE BRASIL
92 665 TATIANA GONÇALVES DE SOUZA 31 F F0099 91 00:47:00 00:45:36 AVULSO
93 652 SUMAIA RAMOS OTTONI 37 F F0099 92 00:47:01 00:45:37 SAUDE FUNCIONAL
94 374 JULIANE VIEIRA DOS REIS 27 F F0099 93 00:47:12 00:45:54 AVULSO
95 465 MARIA DO SOCORRO FERREIRA ALVES 46 F F0099 94 00:47:12 00:46:25 DIADEMA RUN
96 405 LIS GUIBO 28 F F0099 95 00:47:15 00:46:48 RUN4FRIENDS
97 368 JOSIE JURADO SILVA 31 F F0099 96 00:47:27 00:46:52 ROBERTOES
98 697 VANESSA VEDOVETO RUFFATO 27 F F0099 97 00:47:29 00:46:55 ROBERTÕES E ROBERTINHAS
99 716 YASMINN BRITO ONÇA 20 F F0099 98 00:47:36 00:47:06 AVULSO
100 133 DANIELA FABRI SALEME 35 F F0099 99 00:47:37 00:46:14 HEALTH TEAM RUNNING
101 372 JULIANA DE LIMA GARCIA 23 F F0099 100 00:47:37 00:47:10 VIAVAREJO
102 410 LUCIANA DE CAMARGO VAMONDES 38 F F0099 101 00:47:37 00:47:24 COMPLEXO SAÚDE
103 694 VANESSA FABRI SALEME 35 F F0099 102 00:47:37 00:46:14 HEALTH TEAM RUNNING
104 63 ANDREIA PRADA TRINDADE 36 F F0099 103 00:47:55 00:46:57 AVULSO
105 388 LAURA MAZA GARRIDO 36 F F0099 104 00:48:07 00:46:58 AVULSO
106 7 ADRIANA LIANI CASALE 29 F F0099 105 00:48:53 00:48:12 SÓ CORRO
107 41 ANA PAULA RODRIGUES DA SILVA 24 F F0099 106 00:48:53 00:48:48 AVULSO
108 616 ROSANGELA MOREIRA DE ALBUQUERQUE 40 F F0099 107 00:49:34 00:49:15 TOLEDO DO BRASIL
109 251 FERNANDA LOPES CALDAS 32 F F0099 108 00:50:14 00:49:10 AVULSO
110 669 THAÍS A. ANTONIO 31 F F0099 109 00:50:22 00:50:05 DELTA
111 98 CAMILA PESSOA FERREIRA 28 F F0099 110 00:50:31 00:50:19 AVULSO
112 686 VALERIA CAMPOS CORDON 44 F F0099 111 00:50:51 00:50:17 SÓCORRO
113 627 SARA DE SOUSA MARECO 28 F F0099 112 00:51:56 00:50:41 ROBERTOES
114 40 ANA PAULA DA SILVA NETO 31 F F0099 113 00:51:58 00:50:59 AVULSO
115 274 GABRIELA RISSO DE OLIVEIRA 21 F F0099 114 00:52:18 00:52:15 PÉ NO CHÃO
116 201 ELIANE RISSO DE OLIVEIRA 46 F F0099 115 00:52:37 00:52:35 PÉ NO CHÃO
117 623 RUTH LEITE DOS SANTOS NASCIMENTO 61 F F0099 116 00:52:38 00:52:38 PÉ NO CHÃO
118 520 PATRICIA PIVA STORER 39 F F0099 117 00:52:58 00:52:58 DIÁRIO DO GRANDE ABC
119 285 GISELE MARIA DA SILVA 30 F F0099 118 00:53:11 00:52:59 AVULSO
120 187 EDNA MARIA DA SILVA OLIVEIRA 38 F F0099 119 00:53:49 00:53:10 AVULSO
121 37 ANA ELISA YUMI NISHIKAWA 28 F F0099 120 00:53:52 00:52:48 TOLEDO DO BRASIL

© 2011 RMC Esportes

Voltar ao Topo